Wind_Speed
30 30 30 31 33 36 39 42 44 46 47 47 47 46 47 49 51 52 52 53 54 54 53 52 49 47 45 44 42 41 38 35 33 32 31 31 30 29 28 27 25 24 23 22 21 21 23 25 27 28 29 29 28 28 27 26 25 25 25 25 26 26 26 26 26 26 26 25 25 24 24 23 22 21 21 20 19 19 19 19 19 19 19 18 18 18
26 26 26 27 29 31 35 39 41 44 45 46 46 46 47 49 52 53 54 54 54 53 53 52 52 51 50 48 46 43 39 36 34 33 33 32 31 29 28 26 25 25 26 25 24 24 25 27 29 29 29 29 28 28 27 26 26 26 26 26 26 26 26 26 26 26 26 25 25 24 23 23 22 21 20 20 20 19 19 19 19 19 19 19 19 18
26 26 26 26 27 30 33 37 40 42 44 45 46 47 48 50 51 52 52 51 50 50 50 50 51 52 52 52 50 46 41 37 35 34 34 33 32 30 28 26 26 27 28 28 27 26 28 29 30 29 29 29 28 28 27 27 27 26 26 26 26 26 26 26 26 26 26 25 25 24 23 22 22 21 21 20 20 20 20 20 20 20 20 19 19 19
27 27 27 27 27 29 31 34 38 40 42 44 45 47 48 50 51 50 48 47 46 46 47 48 49 51 52 52 51 48 44 39 37 35 35 34 33 31 28 27 27 28 29 29 28 28 29 30 30 29 29 29 29 28 28 27 27 27 27 27 27 26 26 26 26 26 25 25 24 24 23 22 22 21 21 20 20 20 20 20 20 20 20 20 19 19
28 29 29 28 28 28 30 32 35 37 39 41 43 45 47 49 50 49 47 45 44 44 45 46 47 48 49 50 50 49 45 41 38 36 36 35 33 31 29 28 28 28 29 29 29 29 30 29 29 28 28 29 29 29 28 28 28 28 27 27 27 27 27 26 26 26 25 25 24 24 23 22 22 21 21 20 20 20 20 20 21 21 20 20 20 19
29 30 30 30 30 29 30 31 32 34 35 37 39 41 44 47 49 48 46 44 43 43 43 44 45 45 45 46 47 47 46 42 39 37 36 35 34 32 30 29 29 29 29 29 28 29 28 28 28 28 29 29 30 30 29 29 28 28 28 28 27 27 27 26 26 26 25 25 24 24 23 22 22 21 21 21 21 21 21 21 21 21 21 21 20 20
30 31 32 32 32 32 32 32 33 33 33 34 36 38 41 44 47 47 47 45 44 44 44 44 45 45 45 45 45 45 45 43 41 39 37 36 35 34 33 32 31 30 29 28 27 28 28 28 28 29 30 30 30 30 30 29 29 29 28 28 28 27 27 27 26 26 25 25 24 23 23 22 22 22 21 21 21 21 21 21 21 21 21 21 20 20
30 31 33 34 35 35 36 36 36 36 36 37 38 40 42 44 46 47 48 48 47 46 46 46 47 47 47 47 46 46 45 44 42 41 39 38 38 37 37 36 35 33 30 28 27 27 28 28 29 30 31 31 31 31 30 30 29 29 29 28 28 28 27 27 27 26 25 25 24 23 23 22 22 22 22 22 22 22 22 22 22 22 22 21 21 20
31 31 32 34 36 37 39 40 40 41 42 42 43 44 45 46 47 49 49 50 50 49 49 48 48 49 49 49 48 48 47 46 44 43 42 42 42 42 42 42 40 37 32 29 28 28 28 29 30 31 32 32 32 31 31 30 30 30 29 29 28 28 27 27 27 26 25 25 24 24 23 22 22 22 22 22 22 22 22 22 22 22 22 22 21 21
31 31 32 33 34 36 39 42 43 44 45 46 46 47 47 48 49 50 51 51 51 51 51 50 50 49 50 50 50 49 49 49 48 47 46 46 46 46 47 46 44 40 35 31 29 28 28 29 31 32 33 33 33 32 31 31 30 30 29 29 28 28 28 27 27 26 26 25 24 24 23 23 23 23 23 23 23 23 23 23 23 23 22 22 22 21
32 32 33 33 33 34 36 39 41 43 45 46 47 47 48 48 48 49 49 50 51 51 51 51 51 50 50 50 51 51 50 50 50 50 50 50 50 49 49 48 45 41 36 32 29 28 28 30 32 33 34 34 33 32 32 31 31 30 30 29 29 28 28 27 27 26 26 25 25 24 24 24 23 23 23 23 23 23 23 23 23 23 23 22 22 22
31 32 33 33 33 33 34 36 37 40 42 43 44 44 45 44 44 43 43 44 45 46 46 47 49 49 49 49 49 49 49 49 49 49 50 50 50 49 48 47 44 40 35 31 29 28 29 30 33 35 35 35 34 32 32 31 31 30 30 29 29 28 28 28 27 27 26 26 25 25 25 24 24 24 24 24 24 24 23 23 23 23 23 23 22 22
30 31 32 33 33 33 33 33 35 36 38 39 39 38 37 37 36 35 35 35 36 38 39 40 42 43 44 44 44 43 43 43 44 44 44 45 45 46 45 44 41 37 33 30 29 29 30 32 34 36 36 35 34 33 32 31 31 31 30 29 29 29 28 28 27 27 27 26 26 25 25 25 25 25 24 24 24 24 24 24 24 24 23 23 23 22
30 31 31 32 32 33 33 32 32 32 32 32 32 32 33 32 32 31 30 30 31 32 33 34 35 35 36 37 37 37 36 36 36 36 37 38 39 40 40 39 37 34 31 29 29 30 32 34 36 37 37 35 34 33 32 32 31 31 30 30 29 29 29 28 28 27 27 27 26 26 26 26 25 25 25 25 25 24 24 24 24 24 24 23 23 23
31 32 32 32 33 33 33 32 31 29 28 27 28 29 31 31 31 31 31 31 31 30 30 31 31 32 32 32 31 30 30 30 30 30 31 32 33 33 34 34 33 31 30 30 31 33 34 36 37 38 37 35 34 33 33 32 32 31 31 30 30 29 29 28 28 27 27 27 27 26 26 26 26 26 25 25 25 25 25 25 24 24 24 24 23 23
31 33 34 34 34 34 34 33 31 29 27 27 28 29 30 31 32 32 33 34 34 34 34 34 33 33 32 31 30 28 28 28 28 28 28 28 29 29 30 30 31 31 31 32 34 35 36 37 37 37 36 35 34 34 33 33 32 32 31 31 30 30 29 29 28 28 27 27 27 27 27 27 26 26 26 26 25 25 25 25 25 24 24 24 24 23
31 33 35 36 36 36 36 35 33 31 30 29 30 31 31 32 33 34 35 37 37 38 38 38 38 37 36 34 32 31 31 31 31 31 30 30 30 30 30 32 33 33 34 35 36 36 37 37 37 37 36 35 34 34 33 33 33 32 32 31 30 30 29 29 28 28 28 28 27 27 27 27 27 27 26 26 26 26 25 25 25 25 24 24 24 24
31 33 34 36 37 38 38 37 36 34 33 32 32 32 32 33 34 35 37 38 39 40 41 41 41 41 40 39 38 36 35 36 36 35 35 35 34 34 34 35 36 36 36 36 37 37 37 37 38 37 36 35 35 34 34 33 33 32 32 31 31 30 30 29 29 28 28 28 28 28 28 27 27 27 27 27 26 26 26 25 25 25 25 24 24 24
31 32 33 35 37 38 38 38 38 36 35 34 34 34 34 35 35 36 37 38 40 41 42 42 43 42 42 42 41 39 39 39 39 38 38 38 37 37 38 38 38 38 37 37 37 37 37 38 38 37 36 36 35 34 34 34 33 33 32 31 31 30 30 30 29 29 29 28 28 28 28 28 28 27 27 27 27 26 26 26 25 25 25 25 24 24
31 32 33 34 36 37 38 39 38 37 35 35 35 35 35 36 36 37 37 38 39 40 41 42 42 43 43 43 42 41 41 40 40 39 39 39 39 39 39 39 39 38 38 38 38 38 38 39 38 37 37 36 35 35 34 34 33 32 32 31 31 30 30 30 30 29 29 29 29 28 28 28 28 28 28 27 27 27 26 26 26 25 25 25 24 24
30 31 32 33 35 36 38 38 37 37 36 36 36 36 36 37 37 37 38 38 38 39 40 41 41 42 42 42 42 41 41 41 40 40 40 39 40 40 40 40 39 39 38 38 38 39 39 39 38 37 37 36 36 35 34 34 33 32 32 31 31 30 30 30 30 30 29 29 29 29 29 29 28 28 28 27 27 27 27 26 26 26 25 25 25 25
29 30 31 32 34 35 37 37 37 38 38 37 37 37 37 37 37 37 38 38 38 39 39 40 40 41 41 41 41 41 40 40 40 40 40 40 40 41 40 40 40 39 39 38 39 39 39 38 38 37 37 36 36 35 34 34 33 32 32 31 31 30 30 30 30 30 30 30 29 29 29 29 29 28 28 28 27 27 27 27 26 26 26 25 25 25
29 29 30 31 32 34 36 37 38 39 39 39 38 37 37 37 37 38 38 38 38 39 39 39 40 40 40 40 40 40 39 40 40 40 40 40 40 40 40 40 39 39 39 39 38 38 38 38 37 37 36 36 35 35 34 34 33 32 32 31 31 30 30 30 30 30 30 30 30 29 29 29 29 28 28 28 28 27 27 27 26 26 26 26 25 25
29 29 30 30 31 33 34 36 37 38 39 39 39 38 37 37 37 38 38 38 38 39 39 39 39 39 39 39 38 38 39 39 39 40 40 40 40 40 39 39 39 39 39 38 38 38 38 38 37 36 36 35 35 35 34 34 33 33 32 31 31 30 30 30 30 30 30 30 30 30 29 29 29 29 28 28 28 28 27 27 27 26 26 26 26 26
30 30 30 31 31 32 33 35 36 37 38 38 39 38 38 37 37 38 38 38 38 38 38 38 38 38 38 38 37 37 38 38 38 38 39 39 39 39 38 38 38 38 38 38 38 37 37 37 37 36 35 35 35 34 34 34 33 33 32 31 31 31 30 30 30 30 30 30 30 30 29 29 29 29 28 28 28 28 28 27 27 27 27 26 26 26
32 31 31 32 32 32 33 34 35 35 36 37 38 38 38 38 37 37 37 37 37 37 37 37 37 37 37 36 36 37 37 37 37 37 38 38 38 38 38 37 37 37 38 38 38 37 37 37 36 35 35 35 35 34 34 33 33 32 32 31 31 30 30 30 30 30 30 30 30 30 29 29 29 29 29 29 28 28 28 28 28 27 27 27 26 26
34 33 33 33 33 33 33 33 34 34 34 35 36 36 37 37 37 37 36 36 35 35 35 36 36 36 36 36 36 36 36 36 36 37 37 37 37 37 37 37 36 37 38 38 37 36 36 36 36 35 35 35 34 34 34 33 33 32 32 31 31 30 30 30 30 30 30 30 30 30 30 29 29 29 29 29 29 29 28 28 28 28 27 27 27 27
37 36 35 35 34 34 34 34 34 34 34 34 34 35 35 36 36 36 36 35 34 33 34 35 36 35 35 35 35 36 35 35 36 36 37 37 37 37 37 36 36 37 38 38 37 36 36 36 36 35 35 35 34 34 33 33 32 32 32 31 31 30 30 30 30 30 30 30 30 30 30 30 30 29 29 29 29 29 29 29 28 28 27 27 27 27
40 39 38 37 37 36 36 35 35 35 35 35 34 34 34 34 35 35 35 34 33 33 34 35 35 35 35 35 35 35 35 36 36 36 36 36 37 38 37 35 36 37 38 37 37 36 36 36 36 35 35 35 34 34 33 33 32 32 32 31 31 30 30 30 30 30 30 30 30 30 30 30 30 30 30 30 30 29 29 29 29 28 28 27 27 27
42 42 41 40 40 39 38 38 37 37 37 36 36 36 35 34 35 35 35 35 34 34 35 35 35 35 35 35 35 35 36 36 36 36 35 36 37 37 36 35 36 37 37 36 36 36 36 36 36 35 35 35 34 33 33 33 32 32 32 31 31 30 30 30 30 30 30 31 31 30 30 30 30 30 30 30 30 30 30 29 29 28 28 28 28 28
43 43 43 43 42 42 41 40 40 39 39 39 38 38 37 36 36 36 36 35 35 35 35 35 35 35 35 35 35 35 36 36 36 35 35 36 37 37 36 35 36 37 37 36 36 36 36 36 35 35 34 35 34 34 33 32 32 32 32 31 31 31 31 30 31 31 31 31 31 30 31 31 31 31 31 31 30 30 30 30 29 29 28 28 28 28
44 44 44 44 44 44 43 43 43 42 41 41 40 40 39 39 38 38 37 37 37 36 36 36 36 36 36 35 35 35 36 36 36 36 35 36 37 38 36 35 36 37 37 36 36 36 36 35 34 34 34 34 34 34 33 33 33 33 32 32 31 31 31 31 31 31 31 31 30 31 31 31 31 31 31 31 31 30 30 30 29 29 28 28 28 28
43 43 44 44 45 45 45 45 45 44 44 43 42 42 41 41 41 40 40 39 39 38 38 38 37 37 36 36 36 36 37 37 37 36 36 37 38 38 37 36 37 37 38 37 37 37 37 36 34 33 33 34 34 34 33 33 33 33 32 32 32 31 31 31 31 31 31 31 30 31 31 31 31 31 31 31 31 30 30 30 29 29 29 28 28 28
42 42 43 43 44 44 45 45 46 46 46 45 45 44 43 43 42 42 42 41 41 40 39 39 38 38 38 37 37 38 38 38 38 38 37 37 38 39 38 37 37 38 38 38 37 37 37 36 35 34 33 34 35 34 34 34 33 33 33 32 32 32 31 31 31 31 31 31 30 31 31 31 31 31 31 31 31 30 30 30 29 29 29 29 28 28
40 41 41 42 42 43 43 44 45 45 46 46 46 46 45 44 44 43 43 43 42 42 41 40 40 39 39 39 39 39 40 40 40 39 38 38 39 40 39 39 39 39 39 39 38 38 37 37 36 35 34 35 35 36 36 35 34 34 34 33 33 32 32 31 31 31 31 30 30 31 31 31 31 31 31 31 30 30 30 30 30 29 29 29 28 28
38 39 40 40 40 41 41 42 43 43 44 45 46 46 46 46 45 45 44 44 43 43 42 42 42 41 41 40 40 41 41 42 41 40 40 40 41 41 41 41 41 40 40 40 40 40 39 39 39 38 37 37 37 37 37 37 37 36 35 35 34 33 33 32 31 31 30 30 30 30 31 31 31 31 31 31 30 30 30 30 30 29 29 29 28 28
36 37 38 38 38 39 39 40 40 40 41 42 43 44 45 45 45 46 45 45 44 43 43 43 43 43 42 42 42 42 43 43 42 42 42 43 43 43 42 43 43 43 42 43 43 43 42 41 41 41 40 40 40 40 39 39 38 38 37 36 35 34 33 32 31 30 30 30 30 30 30 31 31 31 31 31 30 30 30 30 30 29 29 29 28 28
33 34 35 36 36 37 37 38 38 38 39 39 40 41 42 43 44 45 45 45 45 44 44 44 44 44 44 43 43 43 44 43 43 43 43 44 44 44 44 44 45 45 45 45 45 45 44 44 44 43 43 43 43 42 41 40 39 38 38 37 36 34 33 32 31 30 29 29 30 30 30 30 31 31 31 30 30 30 30 30 30 29 29 29 28 28
31 32 33 33 34 35 35 36 36 36 37 37 38 38 39 40 41 43 44 44 45 45 45 44 44 44 44 44 44 44 44 44 44 44 44 45 45 45 45 45 46 46 46 45 46 45 45 45 44 44 43 43 42 42 42 40 39 38 37 36 35 34 33 31 30 29 29 29 29 30 30 30 30 31 31 30 30 30 30 30 30 29 29 29 28 28
28 29 30 31 32 33 33 34 34 35 35 36 36 37 37 38 39 40 41 42 43 44 44 45 45 45 45 45 45 45 45 45 45 45 45 45 45 46 46 46 46 46 45 45 45 45 45 45 44 44 43 42 41 40 39 38 37 37 35 34 33 32 32 31 30 30 29 29 29 29 30 30 30 30 30 30 30 30 30 30 30 29 29 29 28 28
27 28 28 29 30 30 31 32 33 33 33 34 34 35 36 37 37 38 39 40 41 42 43 44 44 44 45 45 46 46 45 45 45 45 45 45 46 46 46 46 46 46 45 45 45 45 45 44 44 43 42 41 40 39 38 36 35 34 33 32 32 32 32 31 30 30 30 30 29 29 29 29 30 30 30 30 30 30 30 30 30 29 29 28 28 28
26 27 27 27 28 28 29 30 31 31 32 32 33 34 35 36 37 38 39 39 40 41 42 42 43 43 44 45 46 46 46 46 46 46 46 46 46 46 46 46 46 46 45 44 44 44 44 43 43 42 41 40 39 37 36 35 34 33 32 32 33 33 32 31 31 30 30 30 29 29 29 29 29 29 29 30 30 30 30 29 29 29 28 28 28 28
26 26 27 27 27 27 28 29 29 30 30 31 32 33 34 35 36 37 38 39 40 41 42 42 43 43 44 44 45 45 45 46 46 46 46 46 46 46 46 46 46 45 45 43 43 42 42 41 40 40 39 38 36 35 35 34 33 32 32 32 32 31 31 31 30 30 30 30 29 29 28 28 29 29 29 29 29 29 29 29 29 29 28 28 27 27
26 26 26 27 27 28 28 28 29 29 30 31 32 33 34 34 35 36 37 39 40 41 42 42 43 43 44 45 45 45 45 45 46 46 45 45 45 45 44 44 44 44 43 41 40 39 38 37 37 37 36 35 33 33 33 32 31 31 31 31 31 31 31 30 30 29 29 29 29 28 28 28 28 28 29 29 29 29 29 28 28 28 28 28 27 27
25 26 26 27 27 28 28 29 29 30 30 31 32 33 34 34 35 35 36 37 38 40 41 42 42 43 44 45 45 45 45 45 45 46 46 45 44 44 43 43 43 42 41 40 39 37 35 33 33 33 33 32 31 30 30 30 30 30 30 30 30 30 31 30 29 28 28 28 28 27 27 27 27 28 28 28 28 28 28 28 28 28 27 27 27 27
25 25 26 27 27 28 28 29 30 30 31 32 32 33 33 34 34 35 35 36 36 37 38 40 41 42 43 44 45 45 45 45 45 45 45 45 44 43 43 42 42 41 40 39 38 37 35 33 32 31 30 30 30 29 29 28 28 29 29 29 29 29 29 28 28 27 27 27 27 27 26 26 27 27 28 27 27 27 27 27 27 27 27 27 27 27
24 25 25 26 27 27 28 28 29 30 30 31 32 32 33 33 33 34 34 34 34 35 36 36 37 39 40 42 43 43 43 44 44 44 43 43 42 42 41 41 41 40 39 38 36 35 35 34 33 31 29 29 28 28 28 28 28 28 28 28 28 28 27 27 26 26 26 26 26 26 26 26 26 27 27 27 26 26 26 26 26 27 27 27 27 27
24 24 25 25 26 26 27 27 28 28 29 30 30 31 31 32 32 32 32 32 32 32 33 33 34 35 37 38 39 40 40 40 41 41 40 39 39 39 38 38 38 38 37 36 35 34 33 32 32 31 30 29 29 28 27 27 27 28 28 28 27 26 26 26 25 25 25 25 26 26 25 26 26 26 26 26 25 25 25 25 26 26 27 27 27 27
23 24 24 25 25 26 26 27 27 27 28 28 28 29 29 30 30 30 30 31 30 30 31 31 32 32 33 34 35 36 36 37 37 37 36 36 36 35 35 35 34 34 34 33 33 32 31 31 30 30 30 29 29 28 27 27 27 27 28 27 26 25 25 25 25 25 25 25 25 25 25 25 25 25 25 24 24 24 24 25 26 26 27 27 27 26
23 23 24 24 25 25 26 26 26 27 27 27 27 27 28 28 29 29 29 29 29 29 29 29 29 30 31 31 32 33 33 33 34 34 34 34 33 33 33 32 32 31 31 31 31 30 30 29 29 29 29 28 28 28 27 27 27 27 27 27 26 25 24 25 25 25 25 25 25 25 24 24 24 24 24 23 23 23 24 24 26 27 27 27 27 26
22 23 23 24 24 25 25 26 26 26 26 26 27 27 27 27 27 28 28 28 28 28 28 28 28 29 29 30 30 30 31 31 31 31 32 32 32 32 32 31 30 30 29 29 30 29 29 29 28 28 28 27 27 27 27 27 27 27 26 26 25 25 24 25 25 25 25 25 25 24 24 24 23 23 23 23 22 22 23 24 25 26 27 27 27 26
Wind_Direction
228 230 231 232 233 233 233 232 231 230 229 229 229 232 237 242 243 239 233 227 224 223 224 226 228 229 230 230 230 230 228 226 225 225 225 226 227 228 229 231 233 236 240 245 249 253 257 261 263 264 265 265 265 265 265 266 266 267 268 269 270 271 273 274 275 277 278 278 278 278 277 277 276 276 276 276 276 275 275 274 272 271 268 266 265 264
230 231 232 233 233 232 232 231 230 229 229 229 230 233 237 241 238 232 225 221 221 222 223 225 227 229 231 232 232 232 230 227 226 225 225 225 226 227 229 232 234 236 239 242 247 251 256 259 261 262 263 264 264 265 265 266 267 267 268 269 270 271 272 274 275 276 277 277 277 277 276 275 275 275 274 274 274 274 273 272 270 269 266 264 263 262
234 234 235 234 234 232 230 229 228 227 227 228 229 232 234 234 229 223 219 219 220 222 223 225 226 228 230 232 233 233 231 229 227 227 226 226 227 228 231 233 235 237 238 242 247 253 258 260 260 261 262 263 264 265 266 267 267 268 269 269 270 271 272 273 274 275 276 276 276 276 275 274 274 273 273 273 273 272 272 270 269 267 265 263 261 260
236 237 236 235 234 232 230 228 227 226 225 225 227 228 228 225 220 217 218 220 223 225 226 226 227 229 231 233 234 234 232 230 228 228 228 228 229 230 232 234 236 237 239 243 249 255 259 260 261 261 263 264 265 265 266 266 267 268 269 270 271 272 272 273 274 274 275 275 275 275 274 273 273 272 272 272 272 271 270 269 267 265 263 262 260 259
237 237 236 234 232 230 229 228 227 225 225 224 224 224 223 220 218 218 220 224 227 228 229 230 230 232 234 235 236 235 233 230 229 229 230 231 231 231 233 234 236 238 240 246 252 257 260 261 262 263 263 264 264 265 266 266 267 268 269 270 271 272 273 273 274 274 274 274 274 273 273 272 271 271 271 271 270 270 269 268 266 264 263 261 260 259
239 238 236 232 229 226 225 225 225 225 225 224 224 223 222 221 221 222 225 229 232 234 236 237 237 239 240 241 241 239 235 231 229 230 232 233 234 234 233 234 235 238 242 248 254 259 262 262 263 264 264 264 264 265 265 266 267 267 268 270 271 272 273 273 273 274 273 273 272 272 271 270 270 270 270 270 269 269 268 267 265 263 262 261 260 259
240 240 238 235 230 226 222 221 221 222 223 224 224 224 224 224 225 227 230 234 237 240 244 246 247 248 249 249 248 245 241 236 232 231 233 235 237 237 236 235 235 238 242 249 256 260 263 263 264 264 263 263 264 264 265 266 266 267 268 269 270 272 272 273 273 273 272 272 271 270 270 269 269 269 269 269 268 268 267 265 264 262 261 260 259 259
242 241 240 238 235 230 226 222 220 219 220 221 222 223 225 226 228 230 232 235 238 242 245 248 251 253 254 254 253 251 247 242 238 236 236 238 241 242 241 239 237 238 241 246 252 257 260 262 262 263 262 262 263 263 264 265 266 267 268 269 270 271 271 272 272 272 272 271 270 269 269 269 268 268 268 268 267 267 265 264 263 261 260 259 258 258
245 244 244 242 240 236 232 229 225 223 222 222 222 223 225 226 229 231 233 235 237 240 243 246 248 251 253 253 253 252 250 247 244 242 241 242 244 246 247 245 242 239 238 241 246 250 255 258 260 261 261 262 262 263 264 265 265 266 267 268 269 270 271 271 271 271 271 271 270 269 268 268 268 267 267 267 266 265 264 263 261 260 259 258 257 257
252 251 250 249 246 242 238 234 232 230 228 227 227 227 228 229 230 232 234 236 237 239 241 243 245 247 249 250 251 251 250 249 247 246 245 246 248 249 250 248 244 239 236 237 240 245 251 255 258 260 261 261 262 263 264 264 265 266 267 268 269 270 271 271 271 271 271 270 270 269 268 268 267 267 266 266 265 264 263 261 260 259 258 257 257 256
256 257 257 256 253 248 243 238 236 235 233 232 231 231 232 233 234 235 237 238 239 240 241 243 244 245 247 248 249 250 250 250 249 248 248 249 250 251 251 247 243 237 234 234 237 243 249 254 258 260 261 262 263 263 264 264 265 266 267 268 269 270 271 271 271 271 270 270 269 269 268 267 267 266 266 265 264 263 261 260 259 258 257 256 256 256
257 259 260 260 258 253 246 241 239 238 236 234 234 234 234 235 237 238 240 241 241 241 241 243 244 245 246 248 249 250 250 251 251 251 251 251 251 250 249 244 239 234 232 233 237 244 250 255 258 260 261 262 263 264 264 264 265 266 267 268 269 270 270 271 271 270 270 269 269 268 267 267 267 266 266 265 264 262 261 259 258 257 256 256 256 256
256 258 259 260 259 255 249 243 240 239 238 238 237 237 237 237 238 240 240 241 241 240 241 242 244 245 246 247 248 248 249 250 250 250 250 250 249 247 244 239 234 231 230 234 240 247 252 256 259 260 261 263 263 264 264 264 265 266 267 268 269 269 270 270 270 269 269 268 268 267 267 266 266 266 265 264 263 262 260 259 257 256 256 255 255 256
252 254 255 255 255 253 250 245 243 243 244 245 246 246 245 245 245 244 244 244 243 242 243 244 245 246 246 246 246 246 246 246 246 246 246 245 243 241 237 234 231 229 232 238 245 251 254 256 258 260 261 262 263 263 264 264 265 266 267 267 268 268 268 269 268 268 267 267 266 266 266 265 265 265 264 264 262 261 260 258 257 256 256 255 255 256
248 249 249 248 249 249 247 244 243 244 247 251 254 255 255 254 253 253 252 251 250 250 250 250 250 250 249 249 248 247 247 247 247 246 244 242 239 237 236 234 234 235 239 245 251 254 254 256 257 259 261 262 263 263 263 264 265 265 266 267 267 268 268 268 267 267 266 266 265 265 265 265 264 264 263 263 261 260 259 258 257 256 256 256 256 256
247 247 246 246 245 244 243 240 239 241 246 250 253 255 258 259 259 258 257 256 256 256 256 256 256 256 256 255 255 255 256 256 255 254 251 249 245 243 243 244 245 247 249 251 253 254 254 255 257 258 260 261 262 262 263 263 264 265 266 266 267 267 267 267 267 266 265 265 264 264 264 264 264 263 263 261 260 259 258 257 256 256 256 256 256 257
246 246 245 244 243 241 241 238 237 239 244 248 251 254 256 257 257 257 256 256 256 256 257 257 258 259 260 261 261 262 263 264 263 261 260 258 255 253 252 252 252 252 252 252 252 252 253 254 256 258 259 261 261 262 262 263 264 265 265 266 267 267 267 267 266 265 265 264 264 264 264 263 263 263 262 261 259 258 257 256 256 256 256 256 257 257
245 245 244 243 241 240 239 237 237 240 244 249 252 255 256 257 256 255 254 254 254 254 255 256 257 258 259 261 261 262 263 263 262 261 260 259 257 256 255 254 253 252 251 251 251 252 253 254 256 258 259 260 261 261 262 262 263 264 265 266 266 267 267 266 266 265 264 264 263 263 263 263 263 262 261 260 259 257 257 256 255 255 255 256 257 258
246 245 244 242 241 240 238 238 239 242 246 251 254 257 257 256 255 254 253 253 253 253 254 254 255 256 257 258 259 259 259 258 257 256 255 255 254 253 253 252 251 250 250 250 251 252 253 254 256 258 259 260 261 261 262 262 263 264 265 266 266 266 266 266 265 264 264 263 263 263 263 263 262 262 261 260 258 257 256 256 255 255 255 256 257 258
246 245 243 241 240 239 238 238 240 244 247 250 253 254 255 255 254 253 253 253 253 253 253 254 254 255 256 256 257 256 255 254 253 251 250 249 249 249 250 249 249 249 249 250 251 252 253 255 256 258 259 260 260 261 261 262 263 264 265 265 266 266 266 265 265 264 263 263 263 263 263 262 262 261 260 259 258 257 256 255 255 255 255 256 257 258
246 245 243 241 239 238 238 238 240 243 245 247 250 252 253 253 253 253 253 253 253 253 253 253 254 254 254 255 254 254 253 252 251 249 248 247 246 247 248 248 248 249 249 249 251 252 253 255 256 257 258 259 260 261 261 262 263 264 265 265 265 265 265 264 264 263 263 263 262 262 262 262 262 261 260 259 258 257 256 256 255 255 256 256 257 258
245 245 243 241 239 238 237 238 239 240 242 245 248 251 252 253 253 253 253 253 252 252 252 252 253 253 253 253 253 252 252 251 250 249 248 247 246 247 247 248 248 249 249 249 251 252 253 254 255 256 257 258 259 260 261 262 263 264 264 265 264 264 264 263 263 263 262 262 262 262 262 262 262 261 260 259 258 257 256 256 256 256 256 256 257 258
243 243 243 241 240 239 238 238 238 239 241 244 246 249 251 252 253 253 252 252 252 252 252 252 252 252 252 253 253 253 253 252 251 251 249 248 248 248 248 249 249 250 250 250 251 252 253 253 254 255 256 258 259 260 261 262 263 263 264 264 264 263 263 262 262 262 262 262 262 262 262 262 262 261 260 259 259 258 257 256 256 256 256 257 257 258
240 240 240 240 239 239 239 238 238 239 241 243 245 247 249 251 252 252 252 252 252 252 252 252 253 253 253 254 254 254 254 254 253 253 252 252 251 251 250 250 251 251 251 251 251 252 253 253 254 255 256 257 258 259 261 261 262 263 263 263 262 262 262 261 261 261 261 262 262 262 262 262 262 261 261 260 259 258 257 257 256 256 256 257 257 258
238 238 238 238 238 238 239 239 239 240 241 242 243 245 247 249 251 252 253 253 253 253 253 253 254 254 254 255 255 255 255 254 254 254 255 254 254 253 252 252 252 252 252 252 252 252 253 254 255 255 256 257 258 259 260 261 261 262 261 261 261 261 260 260 260 261 261 262 262 262 263 262 262 262 261 260 259 258 258 257 257 256 257 257 257 258
238 238 238 238 238 238 239 239 240 240 241 242 242 243 245 247 248 250 252 253 254 254 255 255 255 255 255 255 255 255 255 255 254 255 255 255 254 254 253 253 253 253 253 253 253 253 254 255 256 256 257 258 258 259 260 260 260 260 260 260 259 259 259 259 259 260 261 261 262 263 263 263 262 262 261 260 259 258 257 257 257 256 256 257 257 258
241 240 240 239 239 239 240 240 241 241 242 242 242 243 244 245 247 249 251 253 255 256 256 256 255 255 255 255 254 254 254 254 253 253 254 254 254 254 253 253 252 253 253 254 254 254 255 256 257 257 258 258 259 259 260 260 260 259 259 258 257 257 257 257 258 259 260 261 262 262 262 262 262 261 261 260 259 258 257 257 256 256 257 257 258 258
244 244 243 242 242 241 241 242 242 243 243 243 243 244 245 245 246 247 250 251 253 255 255 255 255 255 254 254 253 253 252 252 252 252 252 252 253 253 253 252 252 252 253 254 254 255 255 256 257 258 258 259 259 259 259 259 259 258 257 256 256 255 255 256 256 258 259 260 260 261 262 262 261 261 260 259 258 258 257 257 256 256 257 257 258 259
246 246 246 245 245 244 244 244 244 244 245 245 245 245 246 247 247 247 248 249 250 251 252 253 254 254 253 253 252 251 251 251 250 250 251 251 252 252 252 252 252 252 253 254 255 255 255 256 257 258 259 259 259 258 258 258 257 257 256 255 254 254 254 254 255 256 257 258 259 260 260 261 260 260 260 259 258 258 257 257 256 256 257 258 258 259
247 247 247 247 247 247 246 247 247 247 247 247 248 248 248 248 248 248 248 247 247 248 249 250 251 252 252 252 251 251 251 250 250 250 250 250 251 251 251 251 251 252 252 253 254 255 255 255 256 257 258 258 258 257 256 256 255 255 254 253 253 253 253 253 254 255 256 257 258 258 259 260 260 259 259 258 258 257 256 256 256 257 257 258 259 260
247 248 248 248 248 248 248 248 249 249 250 250 250 250 250 250 249 249 248 247 247 246 247 247 248 249 249 250 250 251 251 250 250 249 249 249 250 250 250 250 250 251 252 252 253 254 254 254 254 255 255 256 256 255 254 253 253 252 252 252 251 251 252 252 253 254 255 256 257 257 258 258 259 258 258 257 257 256 256 256 256 257 257 258 259 260
247 248 248 248 248 248 249 249 250 251 251 252 252 253 253 252 251 250 249 248 247 246 246 246 246 246 247 248 249 249 250 249 249 248 248 248 249 249 248 248 248 250 251 250 251 251 252 252 252 252 252 253 253 253 252 251 250 250 250 250 250 250 251 252 253 254 255 255 256 257 257 257 258 257 257 256 256 256 256 256 256 257 258 258 259 260
247 247 248 248 249 249 249 249 250 251 252 253 253 254 254 254 254 253 251 250 249 247 246 246 246 245 246 246 246 247 248 248 247 247 246 247 248 248 248 247 247 248 249 249 249 249 250 250 250 249 249 249 250 250 250 249 248 248 249 249 250 250 251 252 253 254 255 255 256 256 256 257 257 257 256 256 256 256 256 256 257 257 258 258 259 259
247 248 248 249 250 250 250 250 251 251 252 252 253 254 255 255 255 254 254 252 251 250 248 247 247 246 246 245 245 245 246 246 246 246 246 246 247 248 247 246 246 247 248 248 248 248 248 248 247 246 246 246 247 247 248 248 247 247 247 248 249 250 251 252 253 254 255 255 256 256 256 256 256 256 256 256 256 256 256 256 257 257 257 258 258 259
247 247 248 249 250 251 252 252 252 252 252 253 253 253 254 255 255 255 255 254 253 252 251 250 249 248 247 246 245 245 245 245 245 245 245 245 246 247 247 247 246 246 246 246 246 246 245 245 245 244 243 243 244 245 245 246 246 246 246 247 247 248 250 251 252 253 254 255 255 255 256 256 256 256 256 256 256 256 256 256 257 257 257 257 258 258
247 247 248 249 250 251 252 253 254 254 254 254 254 253 253 254 254 254 255 255 255 254 253 253 252 250 249 247 246 245 245 245 245 244 244 244 245 245 246 246 246 245 245 245 245 245 243 243 243 243 241 241 241 242 243 244 245 245 246 246 246 247 249 250 251 252 253 254 255 255 255 256 256 256 256 256 256 256 256 256 257 257 256 257 257 257
247 247 247 248 249 250 251 253 254 255 256 256 255 255 254 254 253 254 254 254 255 255 254 254 254 253 252 251 249 247 247 246 245 245 244 245 244 245 245 245 245 245 244 245 245 244 243 242 242 242 242 241 241 241 242 243 244 245 246 247 247 247 247 249 251 251 253 254 255 255 255 255 256 256 256 256 256 256 256 256 256 256 256 256 256 257
248 247 247 247 248 248 249 251 253 254 255 256 257 256 256 255 254 253 253 254 254 254 254 254 254 254 254 253 252 251 249 248 247 246 245 245 245 245 245 245 245 245 245 245 245 245 245 244 243 243 243 243 243 243 243 243 243 244 245 246 246 246 247 248 249 250 252 253 254 255 255 255 256 256 256 256 256 256 256 256 255 255 255 255 256 256
248 247 247 247 247 247 248 249 250 252 253 255 256 256 256 256 255 254 254 254 254 254 254 254 255 255 255 254 254 253 252 251 249 248 247 247 246 246 246 245 245 245 245 245 245 246 246 245 245 244 244 244 244 244 244 243 243 243 244 245 246 246 246 247 248 249 250 251 253 254 255 255 255 255 256 256 256 255 255 255 254 254 254 254 255 256
249 248 247 247 247 247 247 247 248 250 251 253 254 255 256 256 255 255 255 254 254 254 254 254 255 255 255 255 255 254 254 253 251 250 249 248 247 247 246 245 245 245 245 245 245 245 245 245 245 244 244 243 243 243 242 242 242 242 242 243 244 245 245 245 246 247 248 249 251 252 253 254 254 255 255 255 255 254 254 253 253 253 253 254 255 257
252 251 249 249 248 248 247 248 248 249 250 251 252 254 255 255 255 255 255 255 254 254 254 254 254 254 254 255 254 254 253 253 252 251 250 249 248 247 246 245 245 244 244 244 244 244 244 243 242 242 242 241 241 240 240 240 240 240 240 240 242 243 244 244 244 245 246 247 248 250 251 252 253 254 254 254 254 253 252 252 252 253 253 254 255 257
257 256 255 253 252 250 250 249 249 250 250 251 252 253 254 255 255 255 255 255 254 253 253 253 252 252 252 253 253 253 252 252 251 250 250 249 247 247 246 245 244 244 243 243 243 242 242 241 240 240 240 239 238 238 238 238 239 239 239 239 241 242 243 243 243 243 245 246 247 248 249 251 252 253 253 253 252 252 251 251 252 252 253 254 256 258
261 261 259 258 256 255 254 253 252 252 253 253 254 254 255 255 255 256 256 255 254 253 252 251 251 250 250 250 250 251 251 251 250 249 248 247 246 245 245 244 243 243 242 241 241 241 241 240 239 239 239 239 238 237 238 238 238 239 239 239 241 242 244 244 244 243 244 245 246 247 248 250 251 252 252 252 251 251 250 251 251 252 254 255 256 258
261 260 260 260 259 259 258 257 256 255 255 256 256 256 256 256 256 256 257 256 256 254 253 251 250 250 249 248 248 248 249 249 249 249 248 247 246 245 244 242 242 241 241 240 239 239 239 239 239 239 240 240 239 239 239 239 239 240 240 241 241 242 243 244 245 244 244 245 246 247 249 250 251 252 252 251 251 250 250 251 251 253 254 256 258 260
259 259 258 258 258 257 256 256 256 256 256 256 256 257 258 258 258 257 257 257 257 256 255 254 253 252 250 249 248 248 248 248 248 247 247 246 245 244 243 241 240 240 240 240 239 239 239 238 238 239 240 241 240 241 241 241 241 241 241 242 242 243 243 244 245 246 246 246 247 248 249 251 251 252 251 250 250 249 250 251 252 254 256 258 260 262
256 256 256 255 255 254 253 253 253 253 254 254 255 256 257 258 258 258 257 257 258 258 257 257 256 255 253 251 251 250 249 248 247 246 245 245 244 243 241 240 239 239 238 239 239 239 239 239 239 239 239 239 240 240 241 242 242 243 243 243 243 244 244 246 247 247 247 248 249 250 251 251 251 251 250 249 249 249 250 251 253 255 258 260 263 265
255 255 255 254 254 253 253 252 252 251 251 252 252 253 255 256 257 257 257 257 257 258 258 258 258 257 255 254 253 252 250 248 246 245 244 243 242 241 240 239 239 238 238 237 237 237 237 237 238 239 239 239 239 240 241 242 242 243 244 244 244 245 246 247 248 249 249 250 251 252 252 251 250 250 249 249 249 250 252 254 256 259 261 263 265 267
255 255 255 255 255 254 254 253 253 252 251 250 251 251 252 253 254 255 256 256 257 257 258 258 258 257 256 255 254 252 250 248 246 245 244 243 242 241 240 240 239 239 238 237 236 235 235 235 236 238 239 240 240 240 241 242 242 243 244 245 245 245 247 248 250 250 251 251 252 253 252 250 249 248 248 249 250 252 254 257 259 262 264 266 267 269
255 255 255 255 255 255 255 255 254 253 252 251 250 250 250 250 251 252 253 254 255 256 256 256 256 255 254 253 252 251 250 248 246 245 244 243 242 242 241 241 241 240 239 239 238 237 237 237 238 239 240 241 242 242 242 242 242 242 243 244 245 246 248 249 250 251 251 252 252 252 251 249 247 247 247 249 251 254 257 259 262 264 266 267 269 270
255 254 254 254 254 254 254 254 254 254 253 252 251 250 250 250 250 250 251 251 252 253 254 254 253 253 252 251 250 249 248 247 245 244 243 242 242 241 241 241 241 240 239 240 240 241 241 241 242 242 243 243 243 243 244 243 243 242 243 244 245 246 248 250 250 251 251 251 251 250 249 247 246 247 247 249 252 255 258 261 263 266 267 268 270 271
254 254 254 254 253 253 253 253 253 253 253 252 252 251 250 250 250 249 249 249 249 250 250 250 250 250 249 248 248 248 247 245 244 242 241 240 240 240 239 239 239 238 238 239 241 241 242 242 243 243 244 244 244 244 244 244 243 243 243 244 244 245 247 249 249 249 249 249 249 248 247 246 246 246 248 249 252 255 258 261 264 266 268 269 271 272
Height
3091 3092 3093 3094 3095 3096 3097 3099 3100 3102 3103 3105 3106 3108 3109 3110 3112 3113 3114 3115 3113 3111 3110 3110 3110 3111 3112 3113 3113 3114 3114 3115 3115 3116 3117 3118 3119 3120 3120 3121 3121 3122 3123 3123 3123 3124 3125 3125 3126 3127 3127 3127 3127 3126 3126 3126 3125 3125 3125 3126 3126 3126 3126 3126 3127 3127 3126 3126 3126 3125 3125 3125 3125 3124 3124 3124 3124 3123 3123 3123 3123 3123 3123 3123 3123 3123
3089 3090 3091 3092 3093 3094 3095 3096 3098 3100 3101 3102 3104 3105 3107 3108 3110 3110 3110 3109 3107 3106 3106 3107 3108 3109 3110 3110 3111 3112 3112 3113 3113 3114 3115 3116 3116 3117 3118 3118 3119 3120 3120 3121 3121 3122 3123 3124 3125 3125 3125 3125 3125 3125 3124 3124 3124 3124 3124 3124 3124 3124 3124 3125 3125 3125 3124 3124 3124 3124 3123 3123 3122 3122 3122 3122 3121 3121 3121 3121 3121 3121 3121 3121 3121 3121
3087 3088 3089 3090 3091 3092 3093 3094 3095 3097 3098 3100 3101 3103 3105 3106 3107 3107 3106 3104 3103 3103 3104 3104 3105 3106 3107 3108 3108 3109 3110 3110 3111 3112 3113 3113 3114 3115 3115 3116 3116 3117 3118 3120 3120 3121 3122 3122 3123 3123 3122 3122 3122 3122 3122 3122 3122 3122 3122 3122 3122 3122 3122 3122 3122 3122 3122 3122 3122 3121 3121 3121 3120 3120 3120 3120 3120 3120 3120 3120 3120 3120 3120 3120 3120 3119
3085 3086 3087 3088 3089 3090 3091 3092 3093 3094 3095 3097 3099 3100 3102 3103 3103 3103 3102 3101 3100 3100 3101 3101 3102 3103 3104 3105 3105 3106 3107 3108 3109 3110 3110 3111 3112 3112 3113 3113 3114 3115 3116 3118 3119 3119 3120 3120 3120 3120 3120 3120 3120 3120 3120 3120 3120 3120 3120 3120 3120 3120 3120 3120 3120 3120 3120 3120 3120 3119 3119 3119 3118 3118 3118 3118 3118 3118 3118 3118 3118 3118 3118 3118 3118 3118
3084 3085 3085 3086 3087 3088 3090 3090 3091 3092 3093 3095 3096 3098 3099 3100 3100 3099 3099 3098 3098 3098 3099 3099 3100 3100 3101 3102 3102 3103 3104 3105 3106 3107 3108 3109 3110 3110 3110 3111 3112 3113 3114 3115 3116 3117 3117 3117 3117 3117 3118 3118 3118 3118 3118 3118 3118 3118 3118 3118 3118 3118 3118 3118 3118 3118 3117 3117 3117 3117 3117 3117 3116 3116 3116 3116 3115 3115 3116 3116 3116 3116 3116 3116 3116 3115
3082 3083 3084 3085 3085 3086 3088 3089 3090 3090 3092 3093 3094 3095 3096 3097 3097 3097 3097 3097 3097 3097 3097 3097 3098 3098 3099 3100 3100 3101 3101 3102 3103 3105 3106 3107 3107 3108 3108 3109 3110 3110 3112 3113 3114 3114 3114 3115 3115 3115 3115 3115 3116 3116 3116 3116 3116 3116 3116 3116 3116 3116 3116 3116 3115 3115 3115 3115 3115 3115 3115 3115 3114 3114 3114 3114 3114 3114 3114 3114 3114 3114 3114 3114 3114 3114
3080 3081 3082 3083 3083 3085 3086 3087 3088 3089 3090 3091 3092 3094 3095 3095 3095 3095 3095 3095 3095 3095 3096 3096 3096 3097 3097 3098 3098 3099 3100 3100 3101 3102 3103 3104 3105 3105 3106 3106 3107 3108 3109 3110 3110 3111 3111 3112 3112 3113 3113 3114 3114 3114 3114 3114 3114 3114 3114 3114 3114 3114 3114 3114 3113 3113 3113 3113 3113 3112 3112 3112 3112 3112 3112 3112 3112 3112 3112 3112 3112 3112 3112 3112 3112 3112
3077 3078 3079 3080 3081 3082 3083 3084 3085 3086 3087 3088 3089 3090 3091 3091 3092 3092 3092 3092 3093 3093 3094 3094 3095 3095 3095 3095 3096 3097 3098 3098 3099 3100 3100 3101 3102 3103 3104 3104 3105 3105 3106 3107 3108 3108 3109 3110 3110 3111 3111 3111 3111 3111 3111 3111 3112 3112 3112 3112 3112 3111 3111 3111 3111 3111 3111 3110 3110 3110 3110 3110 3110 3110 3110 3110 3110 3110 3110 3110 3110 3110 3110 3110 3110 3110
3074 3075 3076 3078 3079 3080 3080 3081 3082 3083 3083 3084 3084 3085 3086 3086 3087 3088 3088 3089 3090 3090 3091 3091 3092 3092 3093 3093 3094 3095 3095 3096 3096 3097 3098 3099 3099 3100 3101 3101 3102 3102 3103 3104 3105 3106 3106 3107 3108 3109 3109 3109 3109 3109 3109 3109 3110 3110 3110 3110 3110 3109 3109 3109 3109 3109 3108 3108 3108 3108 3108 3108 3108 3108 3108 3108 3108 3108 3108 3108 3108 3108 3108 3108 3108 3108
3071 3072 3073 3075 3075 3076 3077 3078 3079 3080 3080 3080 3081 3081 3082 3083 3083 3084 3085 3085 3086 3087 3088 3089 3089 3089 3090 3090 3091 3091 3092 3093 3093 3094 3095 3095 3096 3097 3098 3099 3099 3100 3100 3101 3102 3103 3104 3105 3105 3106 3107 3107 3107 3107 3107 3107 3107 3107 3107 3107 3107 3107 3107 3107 3106 3106 3106 3106 3105 3105 3105 3105 3105 3105 3105 3106 3106 3106 3106 3106 3106 3106 3106 3106 3106 3106
3068 3069 3070 3071 3072 3073 3074 3075 3076 3077 3077 3078 3078 3079 3079 3080 3080 3081 3082 3082 3083 3084 3085 3085 3085 3085 3086 3086 3087 3088 3088 3089 3090 3090 3091 3092 3093 3094 3094 3095 3096 3097 3098 3099 3100 3101 3102 3103 3103 3104 3104 3104 3105 3105 3105 3105 3105 3105 3105 3105 3105 3105 3105 3105 3104 3104 3104 3104 3103 3103 3103 3103 3103 3103 3103 3104 3104 3104 3104 3104 3104 3104 3104 3104 3104 3104
3065 3066 3067 3068 3069 3070 3070 3071 3072 3073 3074 3075 3075 3076 3076 3077 3078 3079 3079 3080 3080 3081 3082 3082 3082 3082 3083 3083 3084 3085 3085 3085 3086 3087 3088 3088 3089 3090 3091 3091 3092 3094 3095 3096 3097 3098 3099 3100 3101 3102 3102 3102 3102 3102 3102 3102 3103 3103 3102 3102 3102 3102 3102 3102 3102 3102 3102 3101 3101 3101 3101 3101 3101 3101 3101 3101 3101 3101 3102 3102 3102 3102 3102 3102 3102 3102
3063 3064 3065 3065 3066 3067 3068 3068 3069 3070 3071 3071 3072 3073 3074 3075 3075 3076 3076 3077 3078 3078 3079 3079 3080 3080 3080 3080 3081 3081 3082 3082 3083 3084 3085 3085 3086 3086 3087 3088 3089 3090 3092 3093 3094 3096 3097 3098 3099 3099 3100 3100 3100 3100 3100 3100 3100 3100 3100 3100 3100 3100 3100 3100 3100 3100 3100 3099 3099 3099 3099 3099 3099 3099 3099 3099 3099 3099 3100 3100 3100 3100 3100 3100 3100 3100
3061 3061 3062 3063 3064 3065 3065 3066 3067 3068 3069 3070 3070 3071 3072 3072 3073 3074 3074 3075 3075 3076 3076 3077 3077 3077 3077 3078 3078 3078 3079 3079 3080 3081 3082 3082 3083 3084 3085 3085 3086 3087 3089 3090 3092 3093 3095 3095 3096 3096 3096 3097 3097 3097 3097 3097 3097 3097 3097 3097 3097 3098 3098 3098 3098 3097 3097 3097 3097 3097 3097 3097 3097 3097 3097 3097 3097 3097 3097 3097 3097 3098 3098 3098 3098 3098
3059 3060 3060 3061 3062 3063 3064 3065 3066 3066 3068 3069 3070 3070 3070 3070 3071 3071 3072 3072 3072 3073 3074 3074 3074 3074 3075 3075 3075 3076 3076 3077 3077 3078 3079 3080 3081 3082 3083 3083 3084 3085 3087 3088 3090 3091 3092 3093 3093 3093 3094 3094 3094 3094 3095 3095 3095 3095 3095 3095 3095 3095 3095 3095 3095 3095 3095 3095 3095 3095 3095 3095 3095 3095 3095 3095 3095 3095 3095 3095 3095 3095 3095 3095 3095 3096
3057 3058 3059 3060 3060 3061 3063 3064 3065 3066 3066 3067 3068 3068 3068 3068 3069 3069 3070 3070 3070 3071 3071 3072 3072 3072 3072 3073 3074 3074 3075 3075 3076 3076 3077 3078 3079 3080 3081 3082 3082 3084 3085 3086 3088 3088 3089 3090 3090 3090 3091 3091 3091 3092 3092 3092 3092 3093 3093 3093 3093 3093 3093 3093 3093 3093 3093 3093 3093 3092 3092 3093 3093 3093 3093 3093 3093 3093 3093 3093 3093 3093 3093 3093 3093 3093
3055 3056 3057 3058 3059 3060 3061 3062 3063 3064 3064 3065 3065 3066 3066 3066 3067 3067 3067 3067 3068 3069 3069 3070 3070 3070 3070 3071 3072 3073 3074 3074 3075 3075 3076 3076 3077 3078 3079 3080 3081 3082 3083 3085 3085 3086 3086 3087 3087 3088 3088 3089 3089 3089 3090 3090 3090 3090 3090 3090 3090 3090 3090 3090 3090 3090 3090 3090 3090 3090 3090 3090 3090 3090 3090 3090 3091 3091 3091 3091 3091 3091 3091 3091 3091 3091
3052 3053 3054 3055 3057 3058 3059 3060 3061 3061 3062 3062 3063 3064 3064 3064 3064 3065 3064 3065 3065 3066 3066 3067 3068 3068 3069 3070 3071 3072 3073 3073 3073 3074 3075 3075 3075 3076 3077 3078 3079 3080 3081 3082 3083 3083 3084 3084 3085 3085 3085 3086 3086 3086 3087 3087 3087 3088 3088 3088 3088 3088 3088 3088 3088 3088 3088 3088 3088 3088 3088 3088 3088 3088 3088 3089 3089 3089 3089 3089 3089 3089 3089 3089 3089 3089
3049 3050 3051 3053 3054 3055 3057 3058 3058 3059 3060 3060 3061 3061 3061 3061 3061 3061 3061 3062 3063 3064 3064 3065 3065 3066 3067 3069 3069 3070 3071 3071 3071 3072 3073 3073 3074 3075 3075 3076 3077 3078 3079 3080 3080 3081 3081 3081 3082 3082 3083 3083 3084 3084 3084 3085 3085 3085 3085 3085 3085 3085 3085 3085 3085 3085 3085 3085 3086 3086 3086 3086 3086 3086 3086 3086 3086 3086 3086 3086 3086 3086 3086 3086 3086 3087
3046 3047 3049 3050 3051 3052 3054 3055 3056 3056 3057 3057 3058 3058 3058 3058 3058 3058 3059 3059 3060 3061 3061 3062 3063 3064 3065 3066 3067 3068 3068 3069 3069 3069 3070 3071 3072 3072 3073 3074 3075 3075 3076 3077 3078 3078 3078 3079 3079 3080 3080 3081 3081 3081 3082 3082 3082 3082 3082 3082 3083 3083 3083 3083 3083 3083 3083 3083 3083 3084 3084 3084 3084 3084 3084 3084 3084 3084 3084 3084 3084 3084 3084 3084 3084 3085
3044 3045 3046 3047 3048 3049 3050 3051 3053 3053 3054 3054 3054 3054 3054 3055 3055 3055 3056 3057 3057 3058 3059 3060 3061 3062 3063 3064 3064 3065 3065 3065 3066 3066 3067 3068 3069 3069 3070 3071 3072 3073 3074 3075 3075 3075 3076 3076 3076 3077 3078 3078 3078 3079 3079 3079 3080 3080 3080 3080 3080 3080 3080 3080 3080 3081 3081 3081 3081 3081 3081 3081 3081 3082 3082 3082 3082 3082 3082 3082 3082 3082 3082 3082 3082 3082
3042 3042 3043 3045 3046 3046 3047 3048 3049 3050 3050 3050 3050 3051 3051 3052 3053 3053 3053 3054 3055 3055 3056 3057 3058 3059 3060 3060 3061 3061 3062 3063 3063 3063 3064 3065 3066 3066 3068 3069 3070 3070 3071 3072 3072 3073 3073 3073 3074 3074 3075 3075 3075 3076 3076 3076 3077 3077 3077 3077 3077 3078 3078 3078 3078 3078 3079 3079 3079 3079 3079 3079 3079 3080 3080 3080 3080 3080 3080 3080 3080 3080 3080 3080 3080 3080
3039 3040 3041 3043 3043 3044 3044 3045 3045 3046 3046 3047 3048 3048 3049 3050 3050 3050 3050 3051 3052 3052 3053 3054 3055 3055 3057 3058 3059 3059 3060 3061 3061 3061 3062 3063 3063 3064 3065 3067 3067 3067 3068 3069 3069 3070 3070 3070 3070 3071 3072 3072 3073 3073 3073 3074 3074 3074 3074 3075 3075 3075 3075 3075 3075 3076 3076 3076 3076 3077 3077 3077 3077 3077 3077 3077 3078 3078 3078 3078 3078 3078 3078 3078 3078 3078
3037 3038 3039 3040 3040 3041 3041 3041 3042 3042 3043 3044 3045 3045 3046 3047 3048 3048 3048 3048 3049 3050 3050 3051 3052 3053 3054 3055 3056 3057 3058 3058 3059 3059 3060 3060 3061 3062 3063 3064 3065 3065 3065 3066 3066 3067 3067 3067 3068 3068 3069 3069 3070 3070 3070 3071 3071 3071 3072 3072 3072 3072 3073 3073 3073 3073 3074 3074 3074 3074 3075 3075 3075 3075 3075 3075 3075 3075 3075 3075 3076 3076 3076 3076 3076 3076
3034 3035 3036 3037 3037 3038 3038 3039 3039 3040 3040 3041 3042 3042 3043 3044 3044 3045 3045 3046 3047 3047 3048 3049 3050 3051 3051 3053 3054 3055 3055 3056 3056 3057 3057 3058 3059 3060 3061 3062 3062 3062 3062 3063 3063 3064 3064 3064 3065 3065 3066 3066 3067 3067 3068 3068 3068 3069 3069 3069 3070 3070 3070 3070 3071 3071 3071 3071 3072 3072 3072 3072 3072 3073 3073 3073 3073 3073 3073 3073 3074 3074 3074 3074 3074 3073
3031 3032 3033 3034 3034 3035 3035 3036 3037 3037 3038 3038 3038 3039 3039 3040 3041 3042 3043 3043 3044 3045 3046 3047 3047 3048 3049 3050 3052 3052 3052 3053 3054 3055 3055 3055 3056 3057 3058 3059 3060 3060 3059 3060 3060 3062 3062 3061 3062 3062 3063 3064 3064 3064 3065 3065 3065 3066 3066 3066 3067 3067 3068 3068 3068 3069 3069 3069 3070 3070 3070 3070 3070 3070 3070 3071 3071 3071 3071 3071 3071 3071 3071 3071 3071 3071
3029 3030 3030 3031 3032 3032 3033 3034 3034 3035 3035 3035 3036 3036 3036 3037 3038 3039 3040 3041 3042 3043 3044 3045 3045 3045 3047 3048 3049 3049 3050 3051 3051 3052 3052 3053 3053 3054 3055 3056 3057 3057 3056 3056 3058 3059 3060 3059 3059 3060 3060 3061 3061 3061 3062 3062 3063 3063 3064 3064 3064 3065 3065 3065 3066 3066 3066 3067 3067 3067 3067 3068 3068 3068 3068 3068 3069 3069 3069 3069 3069 3069 3069 3069 3069 3069
3026 3027 3028 3028 3029 3030 3030 3031 3032 3032 3033 3033 3034 3034 3034 3035 3035 3036 3037 3038 3040 3041 3042 3042 3042 3043 3044 3045 3046 3046 3047 3048 3049 3049 3049 3050 3050 3050 3051 3053 3054 3054 3053 3054 3055 3056 3057 3056 3056 3057 3058 3058 3058 3059 3059 3060 3060 3061 3061 3061 3062 3062 3062 3063 3063 3063 3064 3064 3065 3065 3065 3065 3065 3065 3066 3066 3066 3066 3066 3066 3066 3067 3067 3067 3066 3066
3023 3024 3025 3025 3026 3027 3028 3028 3029 3030 3030 3031 3031 3032 3032 3033 3033 3034 3034 3035 3037 3038 3038 3039 3040 3041 3042 3043 3043 3044 3044 3045 3045 3046 3047 3048 3048 3047 3048 3050 3051 3051 3050 3051 3052 3053 3054 3053 3054 3054 3055 3055 3055 3056 3057 3057 3058 3058 3059 3059 3059 3060 3060 3060 3060 3061 3061 3061 3062 3062 3062 3063 3063 3063 3063 3064 3064 3064 3064 3064 3064 3064 3064 3064 3064 3064
3020 3021 3022 3023 3023 3024 3025 3025 3026 3027 3028 3028 3029 3030 3030 3031 3031 3031 3031 3033 3034 3035 3035 3036 3037 3038 3039 3040 3040 3041 3042 3042 3043 3043 3045 3045 3045 3044 3045 3047 3048 3047 3047 3048 3049 3050 3050 3050 3051 3052 3052 3052 3053 3053 3054 3055 3055 3055 3056 3056 3057 3057 3057 3058 3058 3058 3059 3059 3059 3060 3060 3060 3060 3060 3061 3061 3061 3061 3061 3062 3062 3062 3062 3062 3062 3062
3017 3018 3019 3020 3020 3021 3022 3023 3023 3024 3025 3025 3026 3027 3028 3029 3029 3029 3029 3030 3031 3032 3032 3033 3034 3035 3036 3037 3038 3038 3039 3040 3040 3041 3042 3043 3042 3041 3042 3045 3045 3044 3044 3046 3047 3047 3046 3047 3048 3050 3050 3050 3050 3050 3051 3052 3052 3053 3053 3054 3054 3055 3055 3055 3055 3056 3056 3056 3056 3057 3057 3057 3058 3058 3058 3059 3059 3059 3059 3059 3059 3059 3059 3059 3059 3059
3014 3015 3016 3016 3017 3018 3019 3020 3020 3021 3022 3023 3024 3025 3025 3026 3026 3027 3027 3028 3029 3029 3029 3030 3030 3031 3032 3034 3035 3035 3036 3036 3037 3038 3040 3040 3039 3038 3039 3041 3041 3040 3041 3043 3044 3044 3044 3044 3045 3046 3047 3047 3047 3047 3048 3049 3050 3050 3050 3051 3051 3052 3052 3053 3053 3053 3053 3054 3054 3054 3055 3055 3055 3055 3056 3056 3056 3056 3056 3057 3057 3057 3057 3057 3057 3057
3011 3012 3013 3013 3014 3015 3016 3017 3017 3018 3019 3020 3021 3021 3022 3023 3024 3024 3025 3025 3026 3026 3026 3027 3027 3028 3029 3030 3031 3032 3033 3033 3034 3035 3037 3037 3036 3035 3036 3038 3038 3038 3038 3039 3040 3041 3041 3041 3042 3043 3044 3045 3045 3045 3045 3046 3047 3047 3047 3048 3048 3049 3049 3050 3050 3050 3050 3051 3051 3051 3052 3052 3052 3053 3053 3054 3054 3054 3054 3054 3054 3054 3055 3055 3055 3055
3008 3009 3009 3010 3011 3012 3013 3013 3014 3015 3016 3017 3018 3019 3019 3020 3021 3021 3022 3022 3023 3023 3024 3024 3025 3025 3026 3027 3028 3029 3029 3030 3030 3032 3034 3034 3034 3033 3033 3035 3035 3035 3035 3036 3037 3038 3038 3039 3039 3040 3041 3041 3041 3042 3042 3043 3043 3044 3045 3045 3045 3046 3046 3047 3048 3048 3048 3048 3049 3049 3049 3050 3050 3050 3051 3051 3051 3051 3051 3051 3052 3052 3052 3052 3052 3052
3004 3005 3006 3007 3008 3009 3009 3010 3011 3012 3013 3014 3015 3015 3016 3017 3018 3018 3019 3020 3020 3021 3021 3022 3022 3023 3023 3024 3025 3025 3025 3026 3027 3028 3030 3031 3030 3030 3030 3031 3032 3033 3033 3033 3034 3035 3035 3036 3036 3037 3038 3038 3038 3039 3039 3040 3040 3041 3041 3042 3042 3043 3043 3044 3045 3045 3045 3045 3046 3046 3046 3047 3048 3048 3048 3048 3049 3049 3049 3049 3049 3050 3050 3050 3050 3050
3001 3002 3003 3004 3005 3005 3006 3007 3008 3009 3010 3010 3011 3012 3013 3014 3015 3015 3016 3016 3017 3018 3019 3019 3020 3020 3020 3021 3021 3022 3022 3022 3023 3025 3026 3027 3026 3026 3027 3028 3029 3029 3030 3030 3030 3031 3032 3032 3033 3033 3034 3035 3035 3035 3036 3037 3037 3038 3038 3038 3039 3040 3040 3040 3041 3042 3042 3042 3043 3043 3044 3045 3045 3045 3045 3046 3046 3046 3046 3047 3047 3047 3047 3048 3048 3048
2998 2998 2999 3000 3001 3002 3003 3004 3004 3005 3006 3007 3008 3008 3009 3010 3011 3011 3012 3013 3014 3015 3015 3016 3016 3017 3017 3018 3018 3019 3019 3019 3020 3022 3023 3023 3023 3024 3025 3025 3025 3025 3027 3027 3027 3027 3028 3029 3029 3029 3030 3031 3031 3032 3032 3033 3034 3035 3035 3035 3035 3036 3037 3037 3038 3039 3039 3040 3040 3041 3041 3042 3043 3043 3043 3044 3044 3044 3044 3044 3045 3045 3045 3045 3045 3045
2995 2995 2996 2997 2998 2999 3000 3000 3001 3002 3003 3004 3004 3005 3006 3006 3007 3008 3008 3010 3010 3011 3012 3013 3013 3014 3014 3015 3015 3015 3015 3016 3017 3018 3019 3019 3020 3020 3021 3021 3021 3022 3023 3024 3024 3024 3024 3025 3025 3026 3026 3027 3028 3028 3029 3030 3030 3031 3031 3031 3032 3033 3034 3034 3035 3036 3036 3037 3038 3038 3039 3040 3040 3040 3041 3041 3041 3042 3042 3042 3042 3043 3043 3043 3043 3043
2992 2992 2993 2994 2995 2995 2996 2997 2998 2999 3000 3001 3001 3002 3003 3003 3004 3004 3005 3006 3007 3008 3009 3009 3010 3010 3011 3012 3012 3013 3013 3013 3014 3015 3015 3015 3016 3017 3018 3018 3018 3018 3019 3020 3020 3021 3021 3021 3022 3022 3023 3024 3025 3025 3025 3026 3027 3027 3028 3028 3029 3030 3031 3031 3032 3033 3034 3035 3035 3036 3037 3037 3038 3038 3039 3039 3039 3040 3040 3040 3040 3040 3040 3040 3040 3041
2989 2990 2990 2990 2991 2992 2993 2994 2995 2995 2997 2998 2998 2999 3000 3000 3001 3001 3002 3002 3003 3004 3005 3005 3006 3007 3008 3008 3009 3010 3010 3010 3011 3011 3012 3012 3013 3013 3014 3014 3014 3015 3015 3016 3017 3018 3018 3018 3019 3019 3020 3021 3022 3022 3022 3023 3024 3024 3025 3026 3026 3027 3028 3029 3030 3030 3031 3032 3033 3034 3034 3035 3035 3036 3036 3037 3037 3038 3038 3038 3038 3038 3038 3038 3038 3038
2986 2987 2987 2988 2989 2990 2990 2991 2991 2992 2994 2995 2995 2996 2996 2997 2998 2998 2999 3000 3000 3001 3001 3002 3003 3004 3004 3005 3005 3006 3007 3008 3008 3009 3009 3009 3010 3010 3011 3011 3011 3011 3012 3013 3014 3014 3015 3015 3015 3016 3017 3018 3018 3019 3019 3020 3020 3021 3022 3023 3024 3024 3025 3026 3027 3028 3028 3029 3030 3031 3032 3032 3033 3034 3034 3035 3035 3035 3035 3035 3035 3035 3036 3036 3036 3036
2984 2985 2985 2985 2986 2987 2987 2988 2989 2990 2991 2992 2992 2993 2994 2995 2995 2996 2996 2997 2997 2998 2998 2999 3000 3000 3001 3001 3002 3003 3004 3005 3005 3005 3006 3006 3007 3007 3008 3008 3008 3008 3009 3010 3010 3011 3011 3012 3012 3013 3013 3014 3015 3015 3016 3017 3017 3018 3020 3020 3020 3021 3022 3023 3024 3025 3026 3026 3027 3028 3029 3030 3030 3031 3032 3032 3033 3033 3033 3033 3033 3033 3034 3034 3034 3034
2982 2982 2983 2983 2984 2985 2985 2986 2987 2988 2988 2989 2990 2990 2991 2992 2993 2993 2994 2994 2994 2994 2995 2996 2997 2997 2998 2998 2998 2999 3000 3001 3002 3002 3003 3003 3004 3004 3005 3005 3005 3005 3006 3007 3008 3008 3008 3009 3010 3010 3010 3011 3012 3013 3014 3014 3015 3016 3017 3018 3018 3019 3020 3020 3021 3022 3023 3024 3024 3025 3026 3027 3028 3029 3030 3030 3030 3030 3031 3031 3031 3031 3031 3031 3032 3032
2980 2980 2981 2981 2982 2982 2983 2984 2985 2985 2986 2987 2987 2987 2988 2989 2990 2990 2991 2991 2991 2992 2992 2993 2993 2994 2995 2995 2995 2996 2997 2998 2999 2999 3000 3000 3000 3001 3002 3002 3002 3003 3003 3005 3005 3005 3005 3006 3007 3008 3008 3009 3010 3011 3011 3012 3012 3014 3015 3015 3016 3016 3017 3017 3018 3020 3020 3021 3022 3023 3024 3025 3026 3027 3027 3028 3028 3028 3029 3029 3029 3029 3029 3029 3029 3029
2978 2978 2979 2980 2980 2980 2981 2981 2982 2983 2984 2985 2985 2985 2985 2986 2987 2988 2988 2988 2989 2989 2990 2990 2991 2991 2991 2991 2992 2993 2994 2995 2995 2996 2996 2997 2997 2998 2999 2999 3000 3000 3001 3002 3002 3003 3003 3004 3005 3005 3006 3007 3008 3009 3009 3010 3010 3012 3012 3013 3014 3014 3015 3015 3016 3017 3018 3019 3019 3020 3021 3023 3024 3025 3025 3025 3026 3026 3026 3026 3027 3027 3027 3027 3027 3027
2975 2976 2977 2977 2978 2978 2979 2979 2980 2980 2981 2982 2982 2983 2983 2984 2985 2985 2985 2985 2986 2987 2987 2988 2989 2989 2989 2989 2989 2990 2991 2992 2992 2992 2993 2994 2995 2995 2996 2996 2997 2997 2998 2999 3000 3000 3001 3002 3002 3003 3004 3005 3006 3006 3007 3008 3009 3010 3010 3010 3011 3012 3012 3013 3014 3015 3015 3016 3017 3018 3019 3021 3022 3023 3023 3023 3024 3024 3024 3024 3024 3024 3024 3025 3025 3025
2973 2974 2974 2975 2975 2976 2976 2977 2977 2978 2979 2979 2980 2980 2981 2981 2982 2982 2983 2983 2984 2985 2985 2985 2986 2987 2987 2986 2987 2988 2989 2989 2989 2989 2990 2991 2992 2992 2993 2993 2994 2995 2995 2996 2997 2997 2998 2999 3000 3000 3001 3002 3003 3004 3005 3005 3006 3007 3007 3008 3008 3009 3010 3011 3011 3012 3013 3014 3015 3016 3017 3019 3020 3020 3021 3021 3022 3022 3022 3022 3022 3022 3022 3022 3022 3022
2971 2971 2972 2972 2973 2973 2974 2974 2975 2975 2976 2976 2977 2978 2978 2979 2979 2980 2980 2981 2981 2982 2982 2983 2984 2984 2985 2985 2985 2986 2987 2987 2987 2987 2988 2989 2990 2990 2990 2991 2991 2992 2993 2994 2995 2995 2996 2997 2997 2998 2999 3000 3000 3001 3002 3003 3004 3004 3005 3005 3006 3007 3008 3008 3009 3010 3011 3012 3013 3014 3015 3017 3018 3018 3018 3019 3019 3020 3020 3020 3020 3019 3019 3020 3020 3020
2969 2969 2970 2970 2970 2971 2971 2972 2972 2973 2973 2974 2974 2975 2975 2976 2977 2977 2978 2978 2979 2980 2980 2980 2981 2982 2982 2983 2984 2984 2985 2985 2985 2986 2987 2987 2988 2988 2989 2989 2990 2990 2991 2992 2993 2993 2994 2995 2995 2996 2997 2998 2999 2999 3000 3000 3001 3002 3002 3003 3004 3005 3005 3006 3007 3008 3009 3010 3011 3012 3013 3014 3015 3016 3016 3017 3017 3017 3017 3017 3017 3017 3017 3017 3017 3017
2966 2967 2967 2968 2968 2969 2969 2970 2970 2970 2971 2971 2972 2972 2973 2973 2974 2975 2975 2976 2977 2977 2978 2978 2979 2980 2980 2980 2981 2982 2982 2983 2983 2984 2985 2985 2986 2986 2987 2987 2988 2988 2989 2990 2990 2991 2992 2993 2994 2994 2995 2996 2997 2997 2998 2998 2999 2999 3000 3000 3001 3002 3003 3004 3005 3006 3007 3008 3009 3010 3011 3012 3013 3013 3014 3014 3015 3015 3015 3015 3015 3015 3014 3015 3015 3015
2964 2965 2965 2966 2966 2966 2967 2967 2968 2968 2969 2969 2970 2970 2970 2971 2972 2972 2973 2974 2974 2975 2975 2976 2977 2977 2978 2978 2979 2980 2980 2981 2981 2982 2982 2983 2984 2984 2985 2985 2986 2986 2987 2988 2989 2990 2990 2991 2991 2992 2993 2994 2995 2995 2995 2996 2996 2997 2998 2998 2999 3000 3001 3002 3002 3003 3005 3005 3006 3008 3009 3010 3010 3011 3011 3012 3012 3012 3013 3013 3012 3012 3012 3012 3012 3013